{"data":{"norad_id":81228,"intl_designator":"","name":"UNKNOWN","alt_names":[],"object_type":"UNKNOWN","status":"UNKNOWN","operator":null,"country":null,"launch_date":null,"launch_site_code":null,"launch_vehicle":null,"mission":null,"orbit_class":"UNKNOWN","rcs_meters":null,"size_class":null,"mass_kg":null,"dimensions":null,"purposes":[],"wikipedia_slug":null,"has_3d_model":false,"image_url":null,"decayed_at":null,"tle_current":{"epoch":"2026-05-21T02:11:30.928416Z","epoch_age_seconds":403024,"freshness":"STALE","line1":"1 81228U          26141.09133019  .00004956  00000+0  14723-2 0  9993","line2":"2 81228  70.5204 278.4992 0057794 126.1493 234.5008 14.42754319649067","mean_motion":14.42754319,"eccentricity":0.0057794,"inclination_deg":70.5204,"raan_deg":278.4992,"arg_perigee_deg":126.1493,"mean_anomaly_deg":234.5008,"bstar":0.0014723,"rev_number":64906,"period_min":99.809092999153,"perigee_km":708.21971155033,"apogee_km":790.60563270049,"semimajor_km":7127.5496721254,"source":"CELESTRAK","updated_at":"2026-05-25T13:38:09.447237Z"}}}